JBTALKS.CC



JBTALKS.CC»论坛 买卖中心 买卖区 汽车商场
收起/展开 收藏本版 |订阅

汽车商场 今日: 0|主题: 1138

避免被扣分、被禁言、主题被关闭,请务必查阅:

●○   卖家必看   ●○    买家必看   ●○    卖场常见问题与申诉   ●○    【我的成交记录】

【认证卖家: 1年名单   2年名单   3年名单   ●○   公告区






●○ 主题颜色说明: ◆◆◆◆◆◆  细紫色   —— 帖子经过审核,主题正确
●○ 主题颜色说明: ◆◆◆◆◆◆  细黑色   —— 刚刚发布未经版主审核
●○ 主题颜色说明: ◆◆◆◆◆◆  粗紫色 —— 认证卖家之帖子,并经过审核,主题正确

●○ 任何发现违规的买/卖家的会员,请马上报告/短讯息让本卖场版主知道,谢谢大家的合作。
作者 回复/查看 最后发表
公告 公告: 论坛公告 & 论坛条例 Lpohchin 2006-10-25    
[车体] WIRA EVO/GSR lifeissianz 2019-10-9 02:21 PM 0247 lifeissianz 2019-10-9 02:21 PM
[车体] ✿ 纳米水晶镀膜喷雾剂 ✿ 光滑炫亮 驱水防污耐脏 抗刮痕 防止老化  ...2 Nini211 2018-9-13 10:34 AM 161130 Nini211 2019-6-8 08:27 PM
[车体] 我要找2013 Honda Crz 新人帖 baby7571 2019-5-10 01:58 AM 1417 Jason385083 2019-5-13 03:18 PM
[车体] Toyota Vios 1.5 G Auto 2015 Jason385083 2019-5-8 05:36 PM 0420 Jason385083 2019-5-8 05:36 PM
[车体] Volkswagen Golf 2.0 GTi Auto 2010 Jason385083 2019-5-8 05:35 PM 0356 Jason385083 2019-5-8 05:35 PM
[车体] Toyota Fortuner 2.7 V Auto 2017 Jason385083 2019-5-8 05:34 PM 0320 Jason385083 2019-5-8 05:34 PM
[车体] Toyota Camry 2.5 Hybrid Auto Dual VVT-i 2016 Jason385083 2019-5-8 05:33 PM 0351 Jason385083 2019-5-8 05:33 PM
[车体] Toyota Camry 2.5 V Auto Dual VVT-i 2013 Jason385083 2019-5-8 05:33 PM 0346 Jason385083 2019-5-8 05:33 PM
[车体] Toyota Camry 2.0 E Auto 2010 Jason385083 2019-5-8 05:32 PM 0273 Jason385083 2019-5-8 05:32 PM
[车体] Toyota Altis 2.0 V Auto 2018 Jason385083 2019-5-8 05:31 PM 0403 Jason385083 2019-5-8 05:31 PM
[车体] Toyota Altis 1.8 G Auto 2015 Jason385083 2019-5-8 05:31 PM 0308 Jason385083 2019-5-8 05:31 PM
[车体] BMW 520i 2.0 Auto F10 2013 Jason385083 2019-5-8 05:30 PM 0327 Jason385083 2019-5-8 05:30 PM
[车体] Mazda CX-3 Skyactiv 2.0 Auto Sunroof 2016 Jason385083 2019-5-8 05:28 PM 0287 Jason385083 2019-5-8 05:28 PM
[车体] Honda Civic 1.5 TC-P Auto 2018 Jason385083 2019-5-8 05:27 PM 0295 Jason385083 2019-5-8 05:27 PM
[车体] Honda Civic 1.5 TC-P Auto 2016 Jason385083 2019-5-8 05:26 PM 0270 Jason385083 2019-5-8 05:26 PM
[车体] Mercedes Benz A180 1.6 Auto Turbo 2013 Jason385083 2019-5-8 05:24 PM 0262 Jason385083 2019-5-8 05:24 PM
[车体] Mercedes Benz C200 2.0 Auto Avantgarde Local 2016 Jason385083 2019-5-8 05:23 PM 0294 Jason385083 2019-5-8 05:23 PM
[车体] Lexus CT200H 1.8 Auto Hybrid 2012 Jason385083 2019-5-8 05:22 PM 0301 Jason385083 2019-5-8 05:22 PM
[车体] Perodua Myvi 1.3 SE Manual YRV Turbo 2011 Jason385083 2019-5-8 05:21 PM 0279 Jason385083 2019-5-8 05:21 PM
[车体] Proton Saga FLX 1.6 Auto 2013 Jason385083 2019-5-8 05:19 PM 0229 Jason385083 2019-5-8 05:19 PM
[车体] Proton Iriz 1.3 Auto 2015 Jason385083 2019-5-8 05:19 PM 0228 Jason385083 2019-5-8 05:19 PM
[车体] Toyota Prius C 1.5 Hybrid Auto TRD Body Kits 2013/14 Jason385083 2019-5-8 05:17 PM 0214 Jason385083 2019-5-8 05:17 PM
[车体] Toyota Hilux 2.8 Auto Diesel Turbo 2017 Jason385083 2019-5-8 05:16 PM 0213 Jason385083 2019-5-8 05:16 PM
[车体] Toyota Vios 1.5 J Manual TRD Body Kits2013 Jason385083 2019-5-8 05:15 PM 0209 Jason385083 2019-5-8 05:15 PM
[车体] Toyota Sienta 1.5 V Auto Dual VVT-i 2 Power Door 2017 Jason385083 2019-5-8 05:14 PM 0211 Jason385083 2019-5-8 05:14 PM
[车体] Toyota Estima 2.4 Aeras Auto 2 Power Door 2010/13 Jason385083 2019-5-8 05:12 PM 0227 Jason385083 2019-5-8 05:12 PM
[车体] Toyota Estima 2.4 Auto 2 Power Door 2005/10 Jason385083 2019-5-8 05:11 PM 0230 Jason385083 2019-5-8 05:11 PM
[车体] Toyota Avanza 1.5 G Auto VVT-i 2008 Jason385083 2019-5-8 05:09 PM 0226 Jason385083 2019-5-8 05:09 PM
[车体] Perodua Viva 1.0 EZ Auto Elite 2012 Jason385083 2019-5-8 05:08 PM 0239 Jason385083 2019-5-8 05:08 PM
[车体] Perodua Bezza 1.3 Advance Auto 2017 Jason385083 2019-5-8 05:07 PM 0237 Jason385083 2019-5-8 05:07 PM
[车体] Perodua Myvi 1.5 SE Auto 2014 Jason385083 2019-5-8 05:06 PM 0208 Jason385083 2019-5-8 05:06 PM
[车体] Perodua Axia 1.0 SE Auto 2015 Jason385083 2019-5-8 05:05 PM 0218 Jason385083 2019-5-8 05:05 PM
[车体] Perodua Axia 1.0 E Manual 2016 Jason385083 2019-5-8 05:04 PM 0223 Jason385083 2019-5-8 05:04 PM
[车体] Proton Inspira 2.0 CVT Auto Mivec 2011 Jason385083 2019-5-8 05:04 PM 0232 Jason385083 2019-5-8 05:04 PM
[车体] Proton Preve 1.6 CVT Auto CFE Turbo 2012 Jason385083 2019-5-8 05:03 PM 0207 Jason385083 2019-5-8 05:03 PM
[车体] Proton Exora 1.6 Bold Auto CFE Turbo 2012 Jason385083 2019-5-8 05:02 PM 0172 Jason385083 2019-5-8 05:02 PM
[车体] Nissan Grand Livina 1.8 Auto Impul 2010 Jason385083 2019-5-8 05:01 PM 0239 Jason385083 2019-5-8 05:01 PM
[车体] Nissan Grand Livina 1.6 Auto ST-L 2008 Jason385083 2019-5-8 05:00 PM 0164 Jason385083 2019-5-8 05:00 PM
[车体] Nissan Almera 1.5 VL Auto Impul Body Kits 2013 Jason385083 2019-5-8 04:59 PM 0196 Jason385083 2019-5-8 04:59 PM
[车体] Mitsubishi Triton Lite 2.5 Manual Diesel Turbo 2014 Jason385083 2019-5-8 04:58 PM 0175 Jason385083 2019-5-8 04:58 PM
[车体] Mercedes Benz E250 1.8 AMG Auto 2011 Jason385083 2019-5-8 04:56 PM 0175 Jason385083 2019-5-8 04:56 PM
[车体] KIA RIO 1.4 SX Auto Full Specs 2013 Jason385083 2019-5-8 04:55 PM 0228 Jason385083 2019-5-8 04:55 PM
[车体] KIA Cerato K3 1.6 SX Auto Full Specs 2013 Jason385083 2019-5-8 04:53 PM 0124 Jason385083 2019-5-8 04:53 PM
[车体] Hyundai Elantra 1.8 GLS Auto 2012 Jason385083 2019-5-8 04:52 PM 0124 Jason385083 2019-5-8 04:52 PM
[车体] Honda HR-V 1.8 V Auto i-Vtec 2016 Jason385083 2019-5-8 04:51 PM 0127 Jason385083 2019-5-8 04:51 PM
[车体] Honda CR-V 2.0 Auto i-Vtec 4WD 2014 Jason385083 2019-5-8 04:50 PM 0143 Jason385083 2019-5-8 04:50 PM
[车体] Honda CR-V 2.0 Auto i-Vtec 4WD 2011 Jason385083 2019-5-8 04:49 PM 0157 Jason385083 2019-5-8 04:49 PM
[车体] Honda Civic 1.8 SL Auto i-Vtec 2010 Jason385083 2019-5-8 04:48 PM 0138 Jason385083 2019-5-8 04:48 PM
[车体] Honda City 1.5 E Auto i-Vtec 2009 Jason385083 2019-5-8 04:47 PM 0165 Jason385083 2019-5-8 04:47 PM
[车体] Honda Accord 2.4 VTI-L Auto i-Vtec 2012 Jason385083 2019-5-8 04:45 PM 0131 Jason385083 2019-5-8 04:45 PM

快速发帖

还可输入 80 个字符
您需要登录后才可以发帖 登录 | 注册

JBTALKS.CC |联系我们 |隐私政策 |Share

GMT+8, 2021-9-24 09:14 PM , Processed in 0.071708 second(s), 10 queries .

Powered by Discuz! X2.5

© 2001-2012 Comsenz Inc.

Thanks to ImageShack for Free Image Hosting
Ultra High-speed web hosting powered by iCore Technology Sdn. Bhd.
本论坛言论纯属发表者个人意见,与本论坛立场无关
Copyright © 2003-2012 JBTALKS.CC All Rights Reserved
合作联盟网站:
JBTALKS 马来西亚中文论坛 | JBTALKS我的空间 | JBTALKS部落 | ICORE TECHNOLOGY SDN. BHD. | GXUnlimited-ECSHOP | TM UniFi | TM Streamyx | TM Fixed Line
www.jbtalks.cc | mobile.jbtalks.cc | www.jbtalks.com | www.jbtalks.my | www.icore.com.my | www.icorehosting.com | www.icorehosting.net | www.cttsite.com | www.icore.my | www.lpohchin.com
bbs.jbtalks.cc | bbs.jbtalks.com | bbs.jbtalks.my | bbs.jbtalks.com
回顶部